Location: Mascot Post Office (historical)
(40.2645°N, 99.5462°W)
Time: 16:53:01
(UTC+00:00)

Cosmos 1980 Rocket - Pass Details

Date: 14 July 2020
Orbit: 828 x 851 km, 71.0° (Epoch: 05 August)

Event Time Altitude Azimuth Distance (km) Brightness Sun altitude
Rises 10:12:37 0° 328° (NNW) 3,424 5.5 -11.4°
Reaches altitude 10° 10:15:15 10° 320° (NW) 2,482 4.7 -11.0°
Maximum altitude 10:20:23 36° 256° (WSW) 1,323 2.8 -10.3°
Drops below altitude 10° 10:25:29 10° 191° (S) 2,457 4.2 -9.6°
Sets 10:28:05 0° 183° (S) 3,384 4.9 -9.2°
